Location: Driftpile
(55.3500°N, 115.7667°W)
Time: 04:41:40
(UTC+00:00)

ISS - Pass Details

Date: 01 December 2021
Orbit: 413 x 423 km, 51.6° (Epoch: 20 January)

Event Time Altitude Azimuth Distance (km) Brightness Sun altitude
Rises 00:33:18 0° 256° (WSW) 2,382 2.1 -9.9°
Reaches altitude 10° 00:35:27 10° 250° (WSW) 1,515 0.7 -10.2°
Maximum altitude 00:38:43 44° 177° (S) 597 -2.8 -10.6°
Enters shadow 00:41:43 12° 105° (ESE) 1,417 -1.5 -11.0°
